Regional Weather Roundup
Issued by NWS Midland/Odessa, TX

Skip options and go directly to product.
Home | Oldest Version | Previous Version | Current Version | All | Text Only | Save Text | Print | Product List | Glossary Off

Skip product version selection by date and time.   

696
ASUS44 KMAF 250010
RWRMAF
MIDLAND AREA WEATHER ROUNDUP
NATIONAL WEATHER SERVICE MIDLAND TX
700 PM CDT SUN JUL 24 2016

...IN SOUTHWEST TEXAS AND SOUTHEAST NEW MEXICO...

CITY           SKY/WX    TMP DP  RH WIND       PRES   REMARKS
ALPINE         PTSUNNY   91  55  28 S7        30.05F
ANDREWS        FAIR      97  55  23 E13G21    29.95F
ARTESIA        SUNNY    100  48  17 SE12      29.94F
BIG SPRING     MOSUNNY   98  58  26 E12       29.94S
CARLSBAD       PTSUNNY  100  49  17 E7        29.90F
DRYDEN           N/A     99  58  25 E12G25    29.86F
FORT STOCKTON  SUNNY     98  57  25 E18       29.90F
GUAD PASS      SUNNY     91  42  18 E18       30.10S
HOBBS          SUNNY     97  48  19 E12       29.99S
MARFA          SUNNY     95  53  24 E13       30.03F
MIDLAND AIRPK  SUNNY     99  53  20 SE9G17    29.93F
MIDLAND INTL   SUNNY    100  53  20 SE13      29.92F
ODESSA         SUNNY     99  53  21 SE16G24   29.93F
PECOS          SUNNY    103  55  20 E15       29.85F HX 101
PRESIDIO       FAIR     106  49  14 NE12      29.81F HX 103
SEMINOLE       SUNNY     97  50  20 SE12      29.97S
SNYDER           N/A     97  59  28 SE10      29.93S
WINK           SUNNY    101  54  20 E13G20    29.87F
$$
...OTHER STATIONS IN TEXAS...

CITY           SKY/WX    TMP DP  RH WIND       PRES   REMARKS
ABILENE        SUNNY     97  61  30 SE10      29.91F
AMARILLO       SUNNY     95  55  26 SE17      30.00F
AUSTIN         MOSUNNY   97  68  38 SE9       29.86S HX 102
BROWNSVILLE    MOSUNNY   89  76  65 SE18      29.88R HX 100
CORPUS CHRISTI PTSUNNY   90  75  61 SE17      29.87R HX 100
DALLAS FTW     MOSUNNY   98  69  38 SE9       29.87F HX 104
DEL RIO        SUNNY    101  61  26 E12G21    29.80F HX 102
EL PASO        MOSUNNY  105  43  12 SW6       29.89F HX 100
HOUSTON INT    PTSUNNY   92  75  57 SE15      29.88S HX 103
LUBBOCK        MOSUNNY   96  52  22 S8        29.97F
SAN ANGELO     SUNNY    100  58  24 E9        29.88F
SAN ANTONIO    MOSUNNY   97  66  36 E8        29.87S HX 100
WACO           MOSUNNY   98  64  32 SE9       29.87S HX 100
WICHITA FALLS  NOT AVBL
$$
...OTHER LOCATIONS IN NEW MEXICO...

CITY           SKY/WX    TMP DP  RH WIND       PRES   REMARKS
ALAMAGORDO     MOSUNNY   90  55  31 NE10      29.96F
ALBUQUERQUE    TSTM      86  54  33 E9        30.12R
CANNON AFB     SUNNY     95  49  20 SE13G21   30.04F
CLOVIS         SUNNY     95  52  23 SE10G16   30.05S
HOLLOMAN AFB   PTSUNNY   98  43  15 NE17      29.92F
ROSWELL        SUNNY    101  43  13 S13G20    29.95F
RUIDOSO          N/A     84  41  21 E8G16     30.25S
SANTA FE       CLOUDY    84  45  25 SE18      30.21R
TRUTH OR CONSE CLOUDY    92  44  19 NW18G28   30.04R
TUCUMCARI      SUNNY     97  46  17 SE14      29.99S
$$

USA.gov is the U.S. government's official web portal to all federal, state and local government web resources and services.